User: anonymous   Login
Location: C�an Torras
(41.5052°N, 1.9280°E)
Time: 21:37:30
(UTC+00:00)
Language:

CZ-4 R/B - Orbit

View from above orbital plane
View from above orbital plane
View from above satellite
View from above satellite

Ground track
Ground track

The orbit data is extracted from the following two-line orbital elements,

1 29507U 06046C   21112.35382983  .00001229  00000-0  99559-4 0  9992
2 29507  97.7288 138.5348 0046776 203.8850 156.0204 15.00785398791746
Epoch (UTC): 22 April 2021 08:29:30
Eccentricity: 0.0046776
inclination: 97.7288°
perigee height: 532 km
apogee height: 597 km
right ascension of ascending node: 138.5348°
argument of perigee: 203.8850°
revolutions per day: 15.00785398
mean anomaly at epoch: 156.0204°
orbit number at epoch: 79174

The dashed part of the orbit path shows where the satellite is in the earth's shadow,  

DLR